Home   Weather   Alfeld (Leine)   Past weeks

Flag for Germany Past Weather in Alfeld (Leine), Lower Saxony, Germany — Yesterday and Last 2 Weeks

Now
66 °F

Broken clouds.


Feels Like: 66 °F
Forecast: 49 / 60 °F
Wind: 14 mph from West

Location: Braunschweig Wolfsburg

Current Time: Sep 30, 2016 at 5:26:36 PM

Latest Report: Sep 30, 2016 at 4:50 PM


Visibility: N/A

Pressure: 29.92 "Hg

Humidity: 46%

Dew Point: 45 °F

Location of Alfeld (Leine)Location

Past Weather in Alfeld (Leine) — Graph

°F

Alfeld (Leine) Temperature Yesterday

Maximum temperature yesterday: 75 °F (at 5:20 PM)
Minimum temperature yesterday: 63 °F (at 6:50 AM)
Average temperature yesterday: 69 °F

High & Low Weather Summary for the Past Weeks

 TemperatureHumidityPressure
High81 °F (Sep 15, 3:20 PM)100% (Sep 17, 8:50 AM)30.30 "Hg (Sep 17, 8:50 AM)
Low46 °F (Sep 22, 7:50 AM)30% (Sep 15, 4:20 PM)29.86 "Hg (Sep 29, 3:50 PM)
Average63 °F69%30.09 "Hg
* Reported Sep 15 3:20 PM — Sep 30 3:50 PM, Alfeld (Leine), Weather by CustomWeather, © 2016

Note: Actual official high and low records may vary slightly from our data, if they occured in-between our weather recording intervals... More about our weather records

Advertising

Alfeld (Leine) Weather History for the Previous 24 Hours

Scroll right to see more
 ConditionsComfort  
Time TempWeatherWind HumidityBarometerVisibility
3:50 PM
Fri, Sep 30
66 °FPassing clouds.12 mph49%29.92 "HgN/A
3:20 PM66 °FPassing clouds.12 mph49%29.92 "HgN/A
2:50 PM66 °FBroken clouds.14 mph52%29.92 "HgN/A
2:20 PM66 °FPartly sunny.14 mph49%29.92 "HgN/A
1:50 PM66 °FBroken clouds.15 mph52%29.92 "HgN/A
1:20 PM66 °FScattered clouds.15 mph56%29.92 "HgN/A
12:50 PM64 °FScattered clouds.14 mph64%29.92 "HgN/A
12:20 PM64 °FBroken clouds.12 mph64%29.92 "HgN/A
11:50 AM63 °FPartly sunny.12 mph73%29.92 "HgN/A
11:20 AM63 °FBroken clouds.12 mph73%29.92 "HgN/A
10:50 AM61 °FPartly sunny.9 mph77%29.92 "HgN/A
10:20 AM61 °FPassing clouds.10 mph77%29.92 "HgN/A
9:50 AM59 °FPartly sunny.9 mph82%29.92 "HgN/A
9:20 AM59 °FBroken clouds.8 mph82%29.92 "HgN/A
8:50 AM57 °FScattered clouds.8 mph88%29.92 "HgN/A
8:20 AM57 °FPartly sunny.7 mph82%29.89 "HgN/A
7:50 AM57 °FPartly sunny.7 mph88%29.89 "HgN/A
7:20 AM57 °FDrizzle. Broken clouds.5 mph82%29.89 "HgN/A
6:50 AM57 °FLight rain. Clear.5 mph82%29.89 "HgN/A
6:20 AM57 °FClear.7 mph82%29.89 "Hg10 mi
5:50 AM57 °FMostly cloudy.6 mph82%29.89 "HgN/A
10:20 PM
Thu, Sep 29
68 °FPassing clouds.14 mph60%29.86 "HgN/A
9:50 PM68 °FPassing clouds.9 mph60%29.86 "HgN/A
9:20 PM68 °FClear.8 mph60%29.86 "Hg10 mi
8:50 PM68 °FPassing clouds.8 mph60%29.86 "HgN/A
8:20 PM68 °FClear.9 mph60%29.86 "Hg10 mi
7:50 PM68 °FClear.12 mph56%29.86 "Hg10 mi
7:20 PM68 °FClear.8 mph56%29.86 "Hg10 mi
6:50 PM70 °FSunny.9 mph53%29.86 "Hg10 mi
6:20 PM72 °FSunny.12 mph47%29.86 "Hg10 mi
5:50 PM73 °FSunny.12 mph47%29.86 "Hg10 mi
5:20 PM75 °FSunny.13 mph50%29.86 "Hg10 mi
Weather by CustomWeather, © 2016

See weather overviewHow to use our weather pages